DW1234 Weather Reports


time (UTC)temp
C
wind
direction
speed
KPH
gust
KPH
rain 1hr
cm
rain 24hr
cm
rain mn
cm
humidity
%
barometer
mb
20260902014733 30 152 8.0 14.5 0.00 0.00 0.00 60 1011.5
20260902014558 30 156 6.4 14.5 0.00 0.00 0.00 60 1008.6
20260902014242 30 171 9.7 14.5 0.00 0.00 0.00 60 1011.5
20260902013723 30 140 8.0 16.1 0.00 0.00 0.00 59 1011.3
20260902013236 31 180 11.3 17.7 0.00 0.00 0.00 59 1011.3
20260902013104 30 165 11.3 16.1 0.00 0.00 0.00 59 1008.3
20260902012746 31 173 9.7 16.1 0.00 0.00 0.00 59 1011.3
20260902012229 31 165 9.7 16.1 0.00 0.00 0.00 58 1011.2
20260902011739 31 163 9.7 14.5 0.00 0.00 0.00 58 1011.3
20260902011600 31 161 8.0 14.5 0.00 0.00 0.00 58 1008.2
20260902011251 31 170 9.7 14.5 0.00 0.00 0.00 58 1011.2
20260902010743 32 161 9.7 12.9 0.00 0.00 0.00 57 1011.2
20260902010222 32 165 9.7 14.5 0.00 0.00 0.00 56 1011.2
20260902010036 32 163 8.0 14.5 0.00 0.00 0.00 56 1008.2
20260902005734 32 149 9.7 14.5 0.00 0.00 0.00 56 1011.2
20260902005244 32 178 11.3 14.5 0.00 0.00 0.00 55 1011.2
20260902004729 32 158 9.7 16.1 0.00 0.00 0.00 55 1011.2
20260902004538 32 180 9.7 14.5 0.00 0.00 0.00 54 1008.3
20260902004243 33 156 11.3 16.1 0.00 0.00 0.00 54 1011.3
20260902003725 33 162 11.3 16.1 0.00 0.00 0.00 53 1011.2
20260902003237 33 163 11.3 14.5 0.00 0.00 0.00 52 1011.3
20260902003044 33 180 9.7 14.5 0.00 0.00 0.00 52 1008.3
20260902002749 34 143 11.3 14.5 0.00 0.00 0.00 52 1011.2
20260902002235 34 156 9.7 14.5 0.00 0.00 0.00 51 1011.2
20260902001746 35 166 8.0 11.3 0.00 0.00 0.00 51 1011.2
20260902001504 35 167 8.0 14.5 0.00 0.00 0.00 51 1008.3
20260902001237 35 157 9.7 14.5 0.00 0.00 0.00 51 1011.3
20260902000747 35 174 9.7 17.7 0.00 0.00 0.00 50 1011.3
20260902000241 35 146 9.7 17.7 0.00 0.00 0.00 50 1011.5
20260902000044 35 178 11.3 17.7 0.00 0.00 0.00 50 1008.5
20260901235722 35 163 9.7 14.5 0.00 0.00 0.00 49 1011.5
20260901235236 36 163 11.3 16.1 0.00 0.00 0.00 49 1011.5
20260901234742 36 166 12.9 16.1 0.00 0.00 0.00 49 1011.6
20260901234554 36 191 9.7 19.3 0.00 0.00 0.00 49 1008.6
20260901234228 36 192 9.7 14.5 0.00 0.00 0.00 49 1011.6
20260901233738 36 182 9.7 12.9 0.00 0.00 0.00 49 1011.6
20260901233250 36 188 8.0 12.9 0.00 0.00 0.00 48 1011.7
20260901233053 36 178 6.4 12.9 0.00 0.00 0.00 49 1008.7
20260901232735 36 190 8.0 14.5 0.00 0.00 0.00 48 1011.6
20260901232248 36 198 9.7 17.7 0.00 0.00 0.00 47 1011.7
20260901231739 36 183 8.0 17.7 0.00 0.00 0.00 47 1011.7
20260901231530 36 165 9.7 17.7 0.00 0.00 0.00 48 1008.8
20260901231224 36 155 8.0 17.7 0.00 0.00 0.00 48 1011.7
20260901230749 36 186 11.3 16.1 0.00 0.00 0.00 47 1011.7
20260901230232 36 184 9.7 16.1 0.00 0.00 0.00 47 1011.7
20260901230032 36 188 11.3 19.3 0.00 0.00 0.00 47 1008.8
20260901225744 36 200 9.7 17.7 0.00 0.00 0.00 47 1011.8
20260901225228 36 199 9.7 16.1 0.00 0.00 0.00 48 1011.8
20260901224758 36 211 11.3 16.1 0.00 0.00 0.00 48 1011.9
20260901224528 36 186 9.7 16.1 0.00 0.00 0.00 48 1009.0
20260901224250 36 197 9.7 20.9 0.00 0.00 0.00 49 1011.9
20260901223732 36 201 11.3 20.9 0.00 0.00 0.00 47 1011.9
20260901223240 36 219 11.3 19.3 0.00 0.00 0.00 48 1011.8
20260901223011 36 179 9.7 19.3 0.00 0.00 0.00 47 1008.9
20260901222723 36 183 12.9 19.3 0.00 0.00 0.00 47 1011.8
20260901222235 36 180 12.9 24.1 0.00 0.00 0.00 47 1011.8
20260901221746 36 179 16.1 24.1 0.00 0.00 0.00 47 1011.8
20260901221513 36 211 12.9 27.4 0.00 0.00 0.00 47 1008.9
20260901221229 36 205 11.3 27.4 0.00 0.00 0.00 47 1011.9
20260901220740 36 166 12.9 22.5 0.00 0.00 0.00 47 1012.0
20260901220223 36 201 12.9 30.6 0.00 0.00 0.00 46 1012.0
20260901220009 36 191 14.5 30.6 0.00 0.00 0.00 45 1009.0
20260901215735 36 207 14.5 30.6 0.00 0.00 0.00 46 1012.1
20260901215306 36 200 14.5 30.6 0.00 0.00 0.00 45 1012.1
20260901214724 36 157 14.5 27.4 0.00 0.00 0.00 46 1012.1
20260901214554 36 178 14.5 27.4 0.00 0.00 0.00 46 1009.2
20260901214238 36 223 14.5 27.4 0.00 0.00 0.00 48 1012.1
20260901213749 36 188 16.1 27.4 0.00 0.00 0.00 47 1012.1
20260901213231 36 213 17.7 27.4 0.00 0.00 0.00 46 1012.2
20260901213055 36 196 16.1 27.4 0.00 0.00 0.00 48 1009.3
20260901212742 36 180 17.7 29.0 0.00 0.00 0.00 47 1012.1
20260901212224 36 191 20.9 32.2 0.00 0.00 0.00 46 1012.2
20260901211731 36 183 20.9 32.2 0.00 0.00 0.00 47 1012.2
20260901211555 36 211 12.9 24.1 0.00 0.00 0.00 47 1009.3
20260901211303 36 190 16.1 27.4 0.00 0.00 0.00 47 1012.3
20260901210723 37 221 17.7 27.4 0.00 0.00 0.00 47 1012.4
20260901210234 37 217 11.3 19.3 0.00 0.00 0.00 49 1012.4
20260901210033 36 180 12.9 19.3 0.00 0.00 0.00 49 1009.6
20260901205745 37 148 12.9 22.5 0.00 0.00 0.00 49 1012.4
20260901205235 37 176 12.9 27.4 0.00 0.00 0.00 49 1012.4
20260901204804 37 196 16.1 27.4 0.00 0.00 0.00 48 1012.4
20260901204541 37 211 16.1 24.1 0.00 0.00 0.00 46 1009.6
20260901204227 37 196 16.1 25.7 0.00 0.00 0.00 48 1012.6
20260901203737 37 169 14.5 25.7 0.00 0.00 0.00 47 1012.6
20260901203221 37 181 12.9 20.9 0.00 0.00 0.00 49 1012.7
20260901203040 36 178 11.3 20.9 0.00 0.00 0.00 50 1009.9
20260901202732 37 170 12.9 25.7 0.00 0.00 0.00 49 1012.9
20260901202246 37 165 14.5 25.7 0.00 0.00 0.00 48 1012.9
20260901201729 37 189 12.9 19.3 0.00 0.00 0.00 49 1012.9
20260901201533 36 188 11.3 29.0 0.00 0.00 0.00 48 1010.1
20260901201303 37 200 14.5 29.0 0.00 0.00 0.00 48 1013.0
20260901200749 37 197 17.7 29.0 0.00 0.00 0.00 48 1012.9
20260901200240 37 201 11.3 22.5 0.00 0.00 0.00 48 1013.1
20260901200106 37 198 14.5 25.7 0.00 0.00 0.00 47 1010.3
20260901195723 37 174 16.1 25.7 0.00 0.00 0.00 47 1013.1
20260901195253 37 176 17.7 25.7 0.00 0.00 0.00 48 1013.2
20260901194743 37 213 14.5 24.1 0.00 0.00 0.00 46 1013.2
20260901194528 37 182 16.1 24.1 0.00 0.00 0.00 47 1010.4
20260901194228 37 170 12.9 22.5 0.00 0.00 0.00 47 1013.2
20260901193737 37 171 9.7 19.3 0.00 0.00 0.00 48 1013.3
20260901193246 37 174 16.1 24.1 0.00 0.00 0.00 47 1013.3
20260901193029 37 171 12.9 24.1 0.00 0.00 0.00 48 1010.5
20260901192729 37 144 14.5 24.1 0.00 0.00 0.00 47 1013.3
20260901192241 37 155 11.3 20.9 0.00 0.00 0.00 49 1013.5
20260901191726 37 169 14.5 20.9 0.00 0.00 0.00 48 1013.5
20260901191539 36 178 9.7 20.9 0.00 0.00 0.00 48 1010.8
20260901191239 36 192 11.3 20.9 0.00 0.00 0.00 47 1013.7
20260901190751 36 148 9.7 24.1 0.00 0.00 0.00 48 1013.6
20260901190221 36 175 12.9 24.1 0.00 0.00 0.00 48 1013.6
20260901190059 36 166 11.3 24.1 0.00 0.00 0.00 48 1010.8
20260901185728 36 178 14.5 24.1 0.00 0.00 0.00 46 1013.5
20260901185240 36 188 17.7 22.5 0.00 0.00 0.00 46 1013.4
20260901184724 36 132 16.1 22.5 0.00 0.00 0.00 46 1013.4
20260901184503 36 151 14.5 22.5 0.00 0.00 0.00 48 1010.8
20260901184236 36 169 12.9 25.7 0.00 0.00 0.00 48 1013.6
20260901183748 36 202 14.5 24.1 0.00 0.00 0.00 48 1013.6
20260901183231 36 174 16.1 22.5 0.00 0.00 0.00 47 1013.7
20260901183005 36 186 12.9 22.5 0.00 0.00 0.00 46 1010.9
20260901182743 36 183 14.5 24.1 0.00 0.00 0.00 47 1013.7
20260901182228 36 161 9.7 24.1 0.00 0.00 0.00 47 1013.8
20260901181736 36 160 9.7 17.7 0.00 0.00 0.00 47 1013.9
20260901181502 36 202 11.3 17.7 0.00 0.00 0.00 46 1011.1
20260901181249 36 163 12.9 17.7 0.00 0.00 0.00 48 1014.0
20260901180740 36 194 8.0 17.7 0.00 0.00 0.00 47 1014.0
20260901180223 36 161 8.0 19.3 0.00 0.00 0.00 47 1014.1
20260901180041 36 204 11.3 19.3 0.00 0.00 0.00 48 1011.3
20260901175734 36 198 9.7 19.3 0.00 0.00 0.00 48 1014.2
20260901175306 36 163 8.0 14.5 0.00 0.00 0.00 50 1014.2
20260901174727 35 156 12.9 16.1 0.00 0.00 0.00 47 1014.2
20260901174535 35 207 9.7 14.5 0.00 0.00 0.00 50 1011.4
20260901174237 35 159 8.0 17.7 0.00 0.00 0.00 49 1014.2
20260901173806 35 161 9.7 16.1 0.00 0.00 0.00 51 1014.2
20260901173229 35 207 6.4 14.5 0.00 0.00 0.00 52 1014.3
20260901173101 35 200 6.4 16.1 0.00 0.00 0.00 52 1011.5
20260901172739 35 227 6.4 12.9 0.00 0.00 0.00 52 1014.3
20260901172223 34 171 8.0 22.5 0.00 0.00 0.00 52 1014.4
20260901171735 34 185 11.3 22.5 0.00 0.00 0.00 50 1014.4
20260901171605 34 198 11.3 22.5 0.00 0.00 0.00 51 1011.7
20260901171248 34 190 8.0 17.7 0.00 0.00 0.00 52 1014.4
20260901170732 33 207 9.7 19.3 0.00 0.00 0.00 52 1014.4
20260901170236 33 209 9.7 19.3 0.00 0.00 0.00 52 1014.4
20260901170055 33 199 12.9 19.3 0.00 0.00 0.00 52 1011.7
20260901165749 33 163 6.4 19.3 0.00 0.00 0.00 52 1014.4
20260901165233 33 168 11.3 19.3 0.00 0.00 0.00 50 1014.5
20260901164736 33 192 9.7 16.1 0.00 0.00 0.00 53 1014.5
20260901164559 33 206 9.7 16.1 0.00 0.00 0.00 52 1011.8
20260901164248 33 196 8.0 16.1 0.00 0.00 0.00 52 1014.6
20260901163737 33 170 11.3 24.1 0.00 0.00 0.00 53 1014.6
20260901163221 33 144 14.5 24.1 0.00 0.00 0.00 54 1014.6
20260901163040 32 157 11.3 19.3 0.00 0.00 0.00 54 1012.0
20260901162729 33 150 12.9 19.3 0.00 0.00 0.00 53 1014.7
20260901162239 32 171 11.3 16.1 0.00 0.00 0.00 56 1014.7
20260901161722 32 198 6.4 12.9 0.00 0.00 0.00 54 1014.8
20260901161543 32 202 6.4 12.9 0.00 0.00 0.00 56 1012.1
20260901161234 32 200 8.0 12.9 0.00 0.00 0.00 57 1014.8
20260901160745 32 194 8.0 16.1 0.00 0.00 0.00 56 1014.8
20260901160237 32 182 9.7 16.1 0.00 0.00 0.00 60 1014.8
20260901160021 31 174 9.7 12.9 0.00 0.00 0.00 59 1012.1
20260901155749 31 144 6.4 11.3 0.00 0.00 0.00 60 1014.7
20260901155237 31 205 8.0 12.9 0.00 0.00 0.00 59 1014.5
20260901154724 31 213 8.0 12.9 0.00 0.00 0.00 58 1014.5
20260901154504 31 209 8.0 12.9 0.00 0.00 0.00 57 1011.8
20260901154238 31 175 8.0 12.9 0.00 0.00 0.00 58 1014.5
20260901153721 31 190 8.0 12.9 0.00 0.00 0.00 59 1014.7
20260901153231 31 160 8.0 12.9 0.00 0.00 0.00 58 1014.5
20260901153008 31 171 6.4 11.3 0.00 0.00 0.00 61 1011.9
20260901152742 31 172 6.4 9.7 0.00 0.00 0.00 61 1014.5
20260901152225 30 202 6.4 8.0 0.00 0.00 0.00 59 1014.4
20260901151738 30 202 4.8 8.0 0.00 0.00 0.00 61 1014.5
20260901151509 30 159 3.2 8.0 0.00 0.00 0.00 61 1011.8
20260901151248 30 224 4.8 8.0 0.00 0.00 0.00 60 1014.5
20260901150738 30 213 3.2 9.7 0.00 0.00 0.00 62 1014.5
20260901150222 30 213 6.4 11.3 0.00 0.00 0.00 61 1014.5
20260901150055 30 213 6.4 11.3 0.00 0.00 0.00 60 1011.8
20260901145736 30 135 8.0 12.9 0.00 0.00 0.00 60 1014.5
20260901145246 30 194 4.8 12.9 0.00 0.00 0.00 61 1014.5
20260901144730 30 194 4.8 11.3 0.00 0.00 0.00 62 1014.6
20260901144530 29 194 6.4 11.3 0.00 0.00 0.00 60 1012.0
20260901144243 29 170 8.0 11.3 0.00 0.00 0.00 63 1014.6
20260901143725 29 196 6.4 11.3 0.00 0.00 0.00 63 1014.5
20260901143234 28 199 6.4 14.5 0.00 0.00 0.00 63 1014.5
20260901143034 28 203 6.4 14.5 0.00 0.00 0.00 62 1012.0
20260901142749 28 181 8.0 14.5 0.00 0.00 0.00 65 1014.7
20260901142230 28 207 8.0 11.3 0.00 0.00 0.00 63 1014.8
20260901141740 28 197 6.4 12.9 0.00 0.00 0.00 64 1014.8
20260901141534 28 201 4.8 12.9 0.00 0.00 0.00 65 1012.2
20260901141224 28 204 6.4 12.9 0.00 0.00 0.00 65 1014.8
20260901140735 28 156 4.8 9.7 0.00 0.00 0.00 68 1014.8
20260901140247 28 171 6.4 9.7 0.00 0.00 0.00 68 1014.7
20260901140035 27 195 3.2 9.7 0.00 0.00 0.00 67 1012.1
20260901135729 27 170 6.4 11.3 0.00 0.00 0.00 67 1014.7
20260901135237 27 174 6.4 11.3 0.00 0.00 0.00 70 1014.8
20260901134748 27 155 8.0 11.3 0.00 0.00 0.00 70 1014.8
20260901134536 27 171 8.0 12.9 0.00 0.00 0.00 71 1012.2
20260901134233 27 162 4.8 11.3 0.00 0.00 0.00 72 1014.8
20260901133742 26 163 6.4 11.3 0.00 0.00 0.00 72 1014.8
20260901133227 26 144 6.4 11.3 0.00 0.00 0.00 74 1014.8
20260901133028 26 165 6.4 11.3 0.00 0.00 0.00 75 1012.2
20260901132742 26 161 6.4 11.3 0.00 0.00 0.00 75 1014.8
20260901132225 26 156 6.4 11.3 0.00 0.00 0.00 77 1014.8
20260901131751 25 154 6.4 11.3 0.00 0.00 0.00 78 1014.9
20260901131510 25 140 4.8 11.3 0.00 0.00 0.00 79 1012.2
20260901131304 25 171 6.4 12.9 0.00 0.00 0.00 79 1014.8
20260901130725 25 155 6.4 12.9 0.00 0.00 0.00 80 1014.8
20260901130237 24 159 8.0 12.9 0.00 0.00 0.00 81 1014.8
20260901130020 24 157 4.8 11.3 0.00 0.00 0.00 81 1012.2
20260901125722 24 164 6.4 11.3 0.00 0.00 0.00 82 1014.8
20260901125236 23 167 6.4 11.3 0.00 0.00 0.00 82 1014.6
20260901124750 23 163 8.0 11.3 0.00 0.00 0.00 82 1014.7
20260901124510 23 138 4.8 12.9 0.00 0.00 0.00 82 1012.0
20260901124239 23 140 6.4 12.9 0.00 0.00 0.00 82 1014.6
20260901123809 23 155 8.0 12.9 0.00 0.00 0.00 82 1014.5
20260901123231 23 155 8.0 12.9 0.00 0.00 0.00 82 1014.5
20260901123101 23 146 4.8 11.3 0.00 0.00 0.00 82 1011.8
20260901122743 23 159 6.4 12.9 0.00 0.00 0.00 82 1014.3
20260901122228 23 159 6.4 14.5 0.00 0.00 0.00 82 1014.4
20260901121801 23 153 9.7 14.5 0.00 0.00 0.00 82 1014.3
20260901121529 23 163 6.4 11.3 0.00 0.00 0.00 82 1011.7
20260901121227 23 175 6.4 11.3 0.00 0.00 0.00 82 1014.2
20260901120811 23 148 4.8 11.3 0.00 0.00 0.00 82 1014.2
20260901120233 23 140 8.0 11.3 0.00 0.00 0.00 82 1014.2
20260901120101 23 157 6.4 9.7 0.00 0.00 0.00 82 1011.5
20260901120002 23 156 4.8 8.0 0.00 0.00 0.00 82 1011.6
20260901115745 23 156 3.2 8.0 0.00 0.00 0.00 82 1014.2
20260901115230 23 156 4.8 8.0 0.00 0.00 0.00 82 1014.2
20260901114742 23 156 3.2 8.0 0.00 0.00 0.00 81 1014.2
20260901114509 23 156 1.6 8.0 0.00 0.00 0.00 81 1011.5
20260901114225 23 157 3.2 8.0 0.00 0.00 0.00 81 1014.2
20260901113729 23 156 4.8 8.0 0.00 0.00 0.00 81 1014.1
20260901113243 24 157 3.2 8.0 0.00 0.00 0.00 80 1014.2
20260901113058 23 156 1.6 8.0 0.00 0.00 0.00 80 1011.5
20260901112725 24 156 1.6 9.7 0.00 0.00 0.00 80 1014.2
20260901112237 24 156 3.2 9.7 0.00 0.00 0.00 81 1014.2
20260901111749 24 157 4.8 11.3 0.00 0.00 0.00 81 1014.2
20260901111600 23 156 3.2 12.9 0.00 0.00 0.00 81 1011.5
20260901111502 23 157 3.2 12.9 0.00 0.00 0.00 81 1011.5
20260901111234 24 157 4.8 12.9 0.00 0.00 0.00 81 1014.2
20260901110745 24 159 8.0 12.9 0.00 0.00 0.00 80 1014.2
20260901110229 24 198 8.0 11.3 0.00 0.00 0.00 80 1014.2
20260901110013 23 161 6.4 12.9 0.00 0.00 0.00 80 1011.5
20260901105740 24 163 6.4 12.9 0.00 0.00 0.00 80 1014.2
20260901105223 24 162 8.0 12.9 0.00 0.00 0.00 81 1014.2
20260901104732 24 197 6.4 11.3 0.00 0.00 0.00 82 1014.1
20260901104518 24 159 4.8 9.7 0.00 0.00 0.00 82 1011.5
20260901104305 24 160 4.8 8.0 0.00 0.00 0.00 82 1014.3
20260901103726 25 155 4.8 8.0 0.00 0.00 0.00 82 1014.2
20260901103240 25 155 3.2 8.0 0.00 0.00 0.00 82 1014.3
20260901103049 24 155 3.2 8.0 0.00 0.00 0.00 82 1011.7
20260901102724 25 155 4.8 8.0 0.00 0.00 0.00 82 1014.3
20260901102236 25 155 3.2 4.8 0.00 0.00 0.00 82 1014.3
20260901101747 25 155 4.8 4.8 0.00 0.00 0.00 82 1014.4
20260901101553 24 155 1.6 4.8 0.00 0.00 0.00 82 1011.7
20260901101231 25 155 1.6 4.8 0.00 0.00 0.00 82 1014.4
20260901100743 25 155 3.2 8.0 0.00 0.00 0.00 82 1014.5
20260901100225 25 155 3.2 4.8 0.00 0.00 0.00 81 1014.4
20260901100105 25 155 1.6 4.8 0.00 0.00 0.00 81 1011.8
20260901095736 25 155 3.2 8.0 0.00 0.00 0.00 81 1014.5
20260901095247 25 155 3.2 9.7 0.00 0.00 0.00 82 1014.5
20260901094732 25 155 4.8 12.9 0.00 0.00 0.00 82 1014.5
20260901094509 25 155 4.8 12.9 0.00 0.00 0.00 82 1011.9
20260901094246 25 154 6.4 12.9 0.00 0.00 0.00 82 1014.5
20260901093726 25 159 8.0 11.3 0.00 0.00 0.00 82 1014.5
20260901093237 25 155 4.8 6.4 0.00 0.00 0.00 83 1014.5
20260901093017 25 142 3.2 6.4 0.00 0.00 0.00 83 1011.8
20260901092750 25 142 3.2 6.4 0.00 0.00 0.00 83 1014.5
20260901092243 25 142 4.8 8.0 0.00 0.00 0.00 84 1014.5
20260901091725 25 142 6.4 8.0 0.00 0.00 0.00 84 1014.5
20260901091507 25 142 3.2 8.0 0.00 0.00 0.00 84 1011.9
20260901091239 25 129 4.8 8.0 0.00 0.00 0.00 84 1014.6
20260901090751 25 129 4.8 8.0 0.00 0.00 0.00 84 1014.6
20260901090257 25 129 4.8 8.0 0.00 0.00 0.00 84 1014.6
20260901090040 25 142 4.8 6.4 0.00 0.00 0.00 84 1011.9
20260901085747 25 128 4.8 6.4 0.00 0.00 0.00 84 1014.6
20260901085232 25 128 4.8 6.4 0.00 0.00 0.00 85 1014.5
20260901084744 25 128 4.8 6.4 0.00 0.00 0.00 85 1014.5
20260901084527 25 128 3.2 9.7 0.00 0.00 0.00 85 1011.8
20260901084233 25 128 3.2 9.7 0.00 0.00 0.00 85 1014.5
20260901083745 25 128 4.8 11.3 0.00 0.00 0.00 85 1014.5
20260901083235 25 111 6.4 9.7 0.00 0.00 0.00 85 1014.4
20260901083013 24 123 4.8 9.7 0.00 0.00 0.00 85 1011.7
20260901082742 25 117 4.8 6.4 0.00 0.00 0.00 85 1014.4
20260901082227 25 110 4.8 6.4 0.00 0.00 0.00 85 1014.4
20260901081740 25 110 3.2 6.4 0.00 0.00 0.00 85 1014.4
20260901081515 25 110 3.2 6.4 0.00 0.00 0.00 85 1011.7
20260901081235 25 110 3.2 8.0 0.00 0.00 0.00 85 1014.4
20260901080747 25 115 4.8 8.0 0.00 0.00 0.00 85 1014.4
20260901080233 25 110 4.8 9.7 0.00 0.00 0.00 85 1014.4
20260901080059 25 112 4.8 6.4 0.00 0.00 0.00 85 1011.7
20260901075747 25 128 4.8 6.4 0.00 0.00 0.00 85 1014.5
20260901075230 25 128 3.2 4.8 0.00 0.00 0.00 85 1014.4
20260901074738 25 128 4.8 6.4 0.00 0.00 0.00 85 1014.5
20260901074601 25 128 3.2 6.4 0.00 0.00 0.00 85 1011.8
20260901074252 25 128 3.2 9.7 0.00 0.00 0.00 85 1014.4
20260901073742 25 128 4.8 11.3 0.00 0.00 0.00 85 1014.4
20260901073225 25 116 6.4 11.3 0.00 0.00 0.00 84 1014.4
20260901073046 25 116 3.2 8.0 0.00 0.00 0.00 84 1011.7
20260901072737 25 113 4.8 8.0 0.00 0.00 0.00 84 1014.5
20260901072309 25 94 4.8 8.0 0.00 0.00 0.00 84 1014.4
20260901071731 25 58 1.6 4.8 0.00 0.00 0.00 83 1014.5
20260901071528 25 58 3.2 6.4 0.00 0.00 0.00 83 1011.9
20260901071243 25 58 3.2 6.4 0.00 0.00 0.00 83 1014.5
20260901070751 25 58 3.2 6.4 0.00 0.00 0.00 83 1014.5
20260901070242 25 58 3.2 6.4 0.00 0.00 0.00 82 1014.6
20260901070104 25 58 3.2 6.4 0.00 0.00 0.00 82 1011.9
20260901070001 25 58 3.2 4.8 0.00 0.00 0.00 82 1011.8
20260901065727 25 58 3.2 4.8 0.00 0.00 0.00 82 1014.6
20260901065238 26 58 3.2 6.4 0.00 0.00 0.00 82 1014.5
20260901064750 26 58 3.2 6.4 0.00 0.00 0.00 82 1014.5
20260901064547 25 58 3.2 6.4 0.00 0.00 0.00 82 1011.8
20260901064244 26 54 3.2 8.0 0.00 0.00 0.00 82 1014.5
20260901063723 26 54 1.6 8.0 0.00 0.00 0.00 82 1014.5
20260901063236 26 59 3.2 9.7 0.00 0.00 0.00 82 1014.4
20260901063056 26 61 3.2 9.7 0.00 0.00 0.00 82 1011.8
20260901062747 26 55 4.8 9.7 0.00 0.00 0.00 82 1014.5
20260901062231 26 59 6.4 11.3 0.00 0.00 0.00 82 1014.5
20260901061745 26 64 4.8 8.0 0.00 0.00 0.00 81 1014.6
20260901061547 26 64 4.8 8.0 0.00 0.00 0.00 81 1012.0
20260901061231 26 63 4.8 9.7 0.00 0.00 0.00 81 1014.6
20260901060742 26 66 3.2 9.7 0.00 0.00 0.00 81 1014.7
20260901060227 26 65 4.8 8.0 0.00 0.00 0.00 81 1014.7
20260901060054 26 91 3.2 8.0 0.00 0.00 0.00 81 1012.1
20260901055737 26 97 4.8 8.0 0.00 0.00 0.00 81 1014.8
20260901055250 26 94 4.8 9.7 0.00 0.00 0.00 82 1014.7
20260901054734 26 92 4.8 11.3 0.00 0.00 0.00 82 1014.7
20260901054558 26 116 4.8 11.3 0.00 0.00 0.00 82 1012.0
20260901054248 26 96 6.4 11.3 0.00 0.00 0.00 82 1014.7
20260901053730 26 95 6.4 9.7 0.00 0.00 0.00 82 1014.7
20260901053242 26 88 4.8 9.7 0.00 0.00 0.00 82 1014.7
20260901053000 26 101 3.2 9.7 0.00 0.00 0.00 82 1012.0
20260901052727 26 111 3.2 9.7 0.00 0.00 0.00 82 1014.8
20260901052239 26 111 3.2 9.7 0.00 0.00 0.00 82 1014.9
20260901051721 26 84 4.8 9.7 0.00 0.00 0.00 82 1014.8
20260901051513 26 93 3.2 6.4 0.00 0.00 0.00 81 1012.2
20260901051231 26 93 3.2 6.4 0.00 0.00 0.00 81 1014.9
20260901050740 26 65 0.0 3.2 0.00 0.00 0.00 80 1014.9
20260901050226 26 65 0.0 3.2 0.00 0.00 0.00 80 1014.9
20260901050019 26 65 0.0 3.2 0.00 0.00 0.00 80 1012.2
20260901045738 26 65 0.0 0.0 0.00 0.00 0.00 80 1014.9
20260901045222 26 65 0.0 4.8 0.00 0.00 0.00 80 1014.9
20260901044733 26 65 1.6 4.8 0.00 0.00 0.00 79 1014.8
20260901044514 26 65 1.6 3.2 0.00 0.00 0.00 79 1012.1
20260901044248 27 65 1.6 3.2 0.00 0.00 0.00 79 1014.8
20260901043731 27 65 1.6 3.2 0.00 0.00 0.00 78 1014.8
20260901043239 27 65 1.6 3.2 0.00 0.00 0.00 78 1014.8
20260901043014 26 65 1.6 3.2 0.00 0.00 0.00 78 1012.0
20260901042722 27 65 1.6 3.2 0.00 0.00 0.00 78 1014.7
20260901042233 27 65 1.6 3.2 0.00 0.00 0.00 77 1014.7
20260901041743 27 65 1.6 3.2 0.00 0.00 0.00 77 1014.8
20260901041520 27 65 0.0 3.2 0.00 0.00 0.00 77 1012.1
20260901041227 27 65 3.2 3.2 0.00 0.00 0.00 77 1014.8
20260901040755 27 65 1.6 3.2 0.00 0.00 0.00 77 1014.8
20260901040245 27 65 1.6 3.2 0.00 0.00 0.00 76 1014.8
20260901040044 27 65 0.0 3.2 0.00 0.00 0.00 76 1012.1
20260901035731 27 65 0.0 1.6 0.00 0.00 0.00 76 1014.8
20260901035243 27 65 0.0 3.2 0.00 0.00 0.00 76 1014.8
20260901034727 27 65 1.6 3.2 0.00 0.00 0.00 76 1014.7
20260901034550 27 65 0.0 3.2 0.00 0.00 0.00 75 1011.9
20260901034239 27 65 1.6 4.8 0.00 0.00 0.00 76 1014.6
20260901033731 28 65 1.6 4.8 0.00 0.00 0.00 75 1014.6
20260901033245 28 65 3.2 4.8 0.00 0.00 0.00 75 1014.6
20260901033044 27 65 0.0 4.8 0.00 0.00 0.00 75 1011.9
20260901032728 28 65 3.2 4.8 0.00 0.00 0.00 75 1014.6
20260901032255 28 65 3.2 4.8 0.00 0.00 0.00 75 1014.5
20260901031747 28 65 3.2 6.4 0.00 0.00 0.00 75 1014.5
20260901031528 28 65 3.2 6.4 0.00 0.00 0.00 75 1011.7
20260901031230 28 65 3.2 6.4 0.00 0.00 0.00 75 1014.4
20260901030741 28 65 3.2 6.4 0.00 0.00 0.00 75 1014.4
20260901030226 28 66 4.8 6.4 0.00 0.00 0.00 75 1014.5
20260901030034 28 66 3.2 6.4 0.00 0.00 0.00 75 1011.7
20260901025737 28 71 3.2 6.4 0.00 0.00 0.00 74 1014.5
20260901025249 28 71 4.8 8.0 0.00 0.00 0.00 74 1014.4
20260901024731 28 87 4.8 11.3 0.00 0.00 0.00 74 1014.3
20260901024531 28 73 3.2 11.3 0.00 0.00 0.00 73 1011.5
20260901024301 28 92 4.8 11.3 0.00 0.00 0.00 73 1014.3
20260901023722 28 94 6.4 11.3 0.00 0.00 0.00 73 1014.3
20260901023233 28 90 6.4 11.3 0.00 0.00 0.00 73 1014.2
20260901023011 28 87 4.8 9.7 0.00 0.00 0.00 73 1011.4
20260901022744 28 92 4.8 9.7 0.00 0.00 0.00 73 1014.2
20260901022226 29 99 4.8 9.7 0.00 0.00 0.00 72 1014.2
20260901021736 29 99 4.8 9.7 0.00 0.00 0.00 72 1014.1
20260901021558 28 99 4.8 9.7 0.00 0.00 0.00 72 1011.4
20260901021249 29 99 4.8 6.4 0.00 0.00 0.00 72 1014.1
20260901020727 29 99 4.8 6.4 0.00 0.00 0.00 71 1014.0
20260901020240 30 75 3.2 6.4 0.00 0.00 0.00 71 1014.0
20260901020007 29 96 3.2 6.4 0.00 0.00 0.00 70 1011.2
20260901015723 30 96 4.8 6.4 0.00 0.00 0.00 70 1013.9
20260901015234 30 99 3.2 4.8 0.00 0.00 0.00 69 1013.9